Simultaneous Nadir Overpasses (SNOs) Predictions

Prediction of SNOs between AQUA and NOAA-19 Satellite Orbit:

Table of predicted SNOs for the next 14.0 days since TLE Epoch: 9/23/2023
Index Date (AQUA) Time (AQUA) Lat,Lon (AQUA) SZA (AQUA ) Date (NOAA-19) Time (NOAA-19) Lat,Lon (NOAA-19) SZA (NOAA-19 ) Distance(km) Time Diff (sec)
1 09/24/2023 19:27:52 -76.21, 60.38 103.21 09/24/2023 19:27:16 -76.19, 60.46 103.22 2.53 36
2 09/24/2023 20:17:18 76.26,-132.15 76.87 09/24/2023 20:18:10 76.24,-132.10 76.84 2.82 52
3 09/27/2023 00:09:28 -76.19, -9.95 102.38 09/27/2023 00:08:38 -76.20, -9.80 102.37 3.93 50
4 09/27/2023 00:58:53 76.20, 157.67 77.65 09/27/2023 00:59:33 76.22, 157.53 77.67 3.92 40
5 09/29/2023 04:51:03 -76.18, -80.28 101.54 09/29/2023 04:50:01 -76.15, -80.27 101.57 3.89 62
6 09/29/2023 05:40:29 76.24, 87.17 78.54 09/29/2023 05:40:55 76.23, 87.30 78.53 3.74 26
7 10/01/2023 09:32:36 -76.12,-150.46 100.75 10/01/2023 09:31:23 -76.13,-150.61 100.74 4.05 73
8 10/01/2023 10:22:02 76.18, 16.99 79.33 10/01/2023 10:22:18 76.19, 16.88 79.34 3.06 16
9 10/03/2023 14:14:01 -75.72, 140.41 100.33 10/03/2023 14:12:55 -75.66, 137.43 100.32 82.22 66
10 10/03/2023 15:03:35 76.18, -53.35 80.17 10/03/2023 15:03:40 76.19, -53.41 80.18 1.98 5
11 10/05/2023 19:45:07 76.17,-123.68 81.00 10/05/2023 19:45:02 76.17,-123.73 81.01 1.35 5



Historial Predications of SNOs between AQUA and NOAA-19
